Time,TemperatureF,DewpointF,PressureIn,WindDirection,WindDirectionDegrees,WindSpeedMPH,WindSpeedGustMPH,Humidity,HourlyPrecipIn,Conditions,Clouds,dailyrainin,SolarRadiationWatts/m^2,SoftwareType,DateUTC
2013-03-24 00:02:00,36.0,34.0,30.37,ENE,74,4.0,6.0,92,-99.99,,,0.00,0.000000,,2013-03-24 07:02:00,
2013-03-24 00:11:00,36.0,34.0,30.37,ENE,74,4.0,6.0,92,-99.99,,,0.00,0.000000,,2013-03-24 07:11:00,
2013-03-24 00:42:00,35.0,33.0,30.36,ENE,64,3.0,6.0,92,-99.99,,,0.00,0.000000,,2013-03-24 07:42:00,
2013-03-24 00:52:00,35.0,33.0,30.36,ENE,64,3.0,6.0,92,-99.99,,,0.00,0.000000,,2013-03-24 07:52:00,
2013-03-24 01:02:00,35.0,33.0,30.36,ENE,64,3.0,6.0,92,-99.99,,,0.00,0.000000,,2013-03-24 08:02:00,
2013-03-24 01:12:00,35.0,33.0,30.36,ENE,64,3.0,6.0,92,-99.99,,,0.00,0.000000,,2013-03-24 08:12:00,
2013-03-24 01:42:00,36.0,34.0,30.36,ENE,65,3.0,5.0,92,-99.99,,,0.00,0.000000,,2013-03-24 08:42:00,
2013-03-24 01:52:00,36.0,34.0,30.36,ENE,65,3.0,5.0,92,-99.99,,,0.00,0.000000,,2013-03-24 08:52:00,
2013-03-24 02:02:00,36.0,34.0,30.36,ENE,65,3.0,5.0,92,-99.99,,,0.00,0.000000,,2013-03-24 09:02:00,
2013-03-24 02:12:00,36.0,34.0,30.36,ENE,65,3.0,5.0,92,-99.99,,,0.00,0.000000,,2013-03-24 09:12:00,
2013-03-24 02:42:00,36.0,34.0,30.35,ENE,57,2.0,5.0,92,-99.99,,,0.00,0.000000,,2013-03-24 09:42:00,
2013-03-24 02:52:00,36.0,34.0,30.35,ENE,57,2.0,5.0,92,-99.99,,,0.00,0.000000,,2013-03-24 09:52:00,
2013-03-24 03:02:00,36.0,34.0,30.35,ENE,57,2.0,5.0,92,-99.99,,,0.00,0.000000,,2013-03-24 10:02:00,
2013-03-24 03:12:00,36.0,34.0,30.35,ENE,57,2.0,5.0,92,-99.99,,,0.00,0.000000,,2013-03-24 10:12:00,
2013-03-24 03:42:00,36.0,34.0,30.35,ENE,68,2.0,5.0,91,-99.99,,,0.00,0.000000,,2013-03-24 10:42:00,
2013-03-24 03:52:00,36.0,34.0,30.35,ENE,68,2.0,5.0,91,-99.99,,,0.00,0.000000,,2013-03-24 10:52:00,
2013-03-24 04:02:00,36.0,34.0,30.35,ENE,68,2.0,5.0,91,-99.99,,,0.00,0.000000,,2013-03-24 11:02:00,
2013-03-24 04:12:00,36.0,34.0,30.35,ENE,68,2.0,5.0,91,-99.99,,,0.00,0.000000,,2013-03-24 11:12:00,
2013-03-24 04:42:00,37.0,33.0,30.35,ENE,78,2.0,6.0,86,-99.99,,,0.00,0.000000,,2013-03-24 11:42:00,
2013-03-24 04:52:00,37.0,33.0,30.35,ENE,78,2.0,6.0,86,-99.99,,,0.00,0.000000,,2013-03-24 11:52:00,
2013-03-24 05:02:00,37.0,33.0,30.35,ENE,78,2.0,6.0,86,-99.99,,,0.00,0.000000,,2013-03-24 12:02:00,
2013-03-24 05:12:00,37.0,33.0,30.35,ENE,78,2.0,6.0,86,-99.99,,,0.00,0.000000,,2013-03-24 12:12:00,
2013-03-24 05:42:00,38.0,33.0,30.34,East,97,3.0,5.0,84,-99.99,,,0.00,0.000000,,2013-03-24 12:42:00,
2013-03-24 05:52:00,38.0,33.0,30.34,East,97,3.0,5.0,84,-99.99,,,0.00,0.000000,,2013-03-24 12:52:00,
2013-03-24 06:02:00,38.0,33.0,30.34,East,97,3.0,5.0,84,-99.99,,,0.00,0.000000,,2013-03-24 13:02:00,
2013-03-24 06:12:00,38.0,33.0,30.34,East,97,3.0,5.0,84,-99.99,,,0.00,0.000000,,2013-03-24 13:12:00,
2013-03-24 06:42:00,38.0,33.0,30.33,East,82,4.0,11.0,80,-99.99,,,-99.99,0.000000,,2013-03-24 13:42:00,
2013-03-24 06:52:00,38.0,33.0,30.33,East,82,4.0,11.0,80,-99.99,,,-99.99,0.000000,,2013-03-24 13:52:00,
2013-03-24 07:02:00,38.0,33.0,30.33,East,82,4.0,11.0,80,-99.99,,,-99.99,0.000000,,2013-03-24 14:02:00,
2013-03-24 07:12:00,38.0,33.0,30.33,East,82,4.0,11.0,80,-99.99,,,-99.99,0.000000,,2013-03-24 14:12:00,
2013-03-24 07:42:00,38.0,31.0,30.33,East,92,4.0,14.0,76,-99.99,,,-99.99,5.110000,,2013-03-24 14:42:00,
2013-03-24 07:52:00,38.0,31.0,30.33,East,92,4.0,14.0,76,-99.99,,,-99.99,5.110000,,2013-03-24 14:52:00,
2013-03-24 08:02:00,38.0,31.0,30.33,East,92,4.0,14.0,76,-99.99,,,-99.99,5.110000,,2013-03-24 15:02:00,
2013-03-24 08:12:00,38.0,31.0,30.33,East,92,4.0,14.0,76,-99.99,,,-99.99,5.110000,,2013-03-24 15:12:00,
2013-03-24 08:43:00,39.0,29.0,30.33,East,85,2.0,9.0,68,-99.99,,,0.00,41.029999,,2013-03-24 15:43:00,
2013-03-24 08:53:00,39.0,29.0,30.33,East,85,2.0,9.0,68,-99.99,,,0.00,41.029999,,2013-03-24 15:53:00,
2013-03-24 09:02:00,39.0,29.0,30.33,East,85,2.0,9.0,68,-99.99,,,0.00,41.029999,,2013-03-24 16:02:00,
2013-03-24 09:12:00,39.0,29.0,30.33,East,85,2.0,9.0,68,-99.99,,,0.00,41.029999,,2013-03-24 16:12:00,
2013-03-24 09:42:00,40.0,29.0,30.33,ENE,72,4.0,11.0,63,-99.99,,,0.00,128.539993,,2013-03-24 16:42:00,
2013-03-24 09:52:00,40.0,29.0,30.33,ENE,72,4.0,11.0,63,-99.99,,,0.00,128.539993,,2013-03-24 16:52:00,
2013-03-24 10:02:00,40.0,29.0,30.33,ENE,72,4.0,11.0,63,-99.99,,,0.00,128.539993,,2013-03-24 17:02:00,
2013-03-24 10:12:00,40.0,29.0,30.33,ENE,72,4.0,11.0,63,-99.99,,,0.00,128.539993,,2013-03-24 17:12:00,
2013-03-24 10:42:00,44.0,29.0,30.31,East,87,3.0,10.0,57,-99.99,,,0.00,272.769989,,2013-03-24 17:42:00,
2013-03-24 10:53:00,44.0,29.0,30.31,East,87,3.0,10.0,57,-99.99,,,0.00,272.769989,,2013-03-24 17:53:00,
2013-03-24 11:02:00,44.0,29.0,30.31,East,87,3.0,10.0,57,-99.99,,,0.00,272.769989,,2013-03-24 18:02:00,
2013-03-24 11:12:00,44.0,29.0,30.31,East,87,3.0,10.0,57,-99.99,,,0.00,272.769989,,2013-03-24 18:12:00,
2013-03-24 11:42:00,48.0,29.0,30.31,ESE,107,2.0,10.0,48,-99.99,,,0.00,605.619995,,2013-03-24 18:42:00,
2013-03-24 11:52:00,48.0,29.0,30.31,ESE,107,2.0,10.0,48,-99.99,,,0.00,605.619995,,2013-03-24 18:52:00,
2013-03-24 12:02:00,48.0,29.0,30.31,ESE,107,2.0,10.0,48,-99.99,,,0.00,605.619995,,2013-03-24 19:02:00,
2013-03-24 12:12:00,48.0,29.0,30.31,ESE,107,2.0,10.0,48,-99.99,,,0.00,605.619995,,2013-03-24 19:12:00,
2013-03-24 12:42:00,49.0,28.0,30.29,ENE,64,4.0,15.0,44,-99.99,,,0.00,599.349976,,2013-03-24 19:42:00,
2013-03-24 12:53:00,49.0,28.0,30.29,ENE,64,4.0,15.0,44,-99.99,,,0.00,599.349976,,2013-03-24 19:53:00,
2013-03-24 13:02:00,49.0,28.0,30.29,ENE,64,4.0,15.0,44,-99.99,,,0.00,599.349976,,2013-03-24 20:02:00,
2013-03-24 13:12:00,49.0,28.0,30.29,ENE,64,4.0,15.0,44,-99.99,,,0.00,599.349976,,2013-03-24 20:12:00,
2013-03-24 13:42:00,49.0,28.0,30.28,ENE,77,4.0,10.0,42,-99.99,,,0.00,284.040009,,2013-03-24 20:42:00,
2013-03-24 13:53:00,49.0,28.0,30.28,ENE,77,4.0,10.0,42,-99.99,,,0.00,284.040009,,2013-03-24 20:53:00,
2013-03-24 14:02:00,49.0,28.0,30.28,ENE,77,4.0,10.0,42,-99.99,,,0.00,284.040009,,2013-03-24 21:02:00,
2013-03-24 14:11:00,49.0,28.0,30.28,ENE,77,4.0,10.0,42,-99.99,,,0.00,284.040009,,2013-03-24 21:11:00,
2013-03-24 14:43:00,52.0,28.0,30.26,East,84,4.0,10.0,39,-99.99,,,0.00,417.459991,,2013-03-24 21:43:00,
2013-03-24 14:53:00,52.0,28.0,30.26,East,84,4.0,10.0,39,-99.99,,,0.00,417.459991,,2013-03-24 21:53:00,
2013-03-24 15:02:00,52.0,28.0,30.26,East,84,4.0,10.0,39,-99.99,,,0.00,417.459991,,2013-03-24 22:02:00,
2013-03-24 15:12:00,52.0,28.0,30.26,East,84,4.0,10.0,39,-99.99,,,0.00,417.459991,,2013-03-24 22:12:00,
2013-03-24 15:42:00,51.0,26.0,30.25,ENE,77,3.0,12.0,37,-99.99,,,0.00,228.369995,,2013-03-24 22:42:00,
2013-03-24 15:52:00,51.0,26.0,30.25,ENE,77,3.0,12.0,37,-99.99,,,0.00,228.369995,,2013-03-24 22:52:00,
2013-03-24 16:02:00,51.0,26.0,30.25,ENE,77,3.0,12.0,37,-99.99,,,0.00,228.369995,,2013-03-24 23:02:00,
2013-03-24 16:11:00,51.0,26.0,30.25,ENE,77,3.0,12.0,37,-99.99,,,0.00,228.369995,,2013-03-24 23:11:00,
2013-03-24 16:42:00,52.0,26.0,30.24,ENE,71,4.0,13.0,37,-99.99,,,0.00,183.740005,,2013-03-24 23:42:00,
2013-03-24 16:52:00,52.0,26.0,30.24,ENE,71,4.0,13.0,37,-99.99,,,0.00,183.740005,,2013-03-24 23:52:00,
2013-03-24 17:02:00,52.0,26.0,30.24,ENE,71,4.0,13.0,37,-99.99,,,0.00,183.740005,,2013-03-25 00:02:00,
2013-03-24 17:12:00,52.0,26.0,30.24,ENE,71,4.0,13.0,37,-99.99,,,0.00,183.740005,,2013-03-25 00:12:00,
2013-03-24 18:42:00,50.0,32.0,30.22,ENE,64,1.0,4.0,50,-99.99,,,0.00,59.500000,,2013-03-25 01:42:00,
2013-03-24 18:52:00,50.0,32.0,30.22,ENE,64,1.0,4.0,50,-99.99,,,0.00,59.500000,,2013-03-25 01:52:00,
2013-03-24 19:02:00,50.0,32.0,30.22,ENE,64,1.0,4.0,50,-99.99,,,0.00,59.500000,,2013-03-25 02:02:00,
2013-03-24 19:11:00,50.0,32.0,30.22,ENE,64,1.0,4.0,50,-99.99,,,0.00,59.500000,,2013-03-25 02:11:00,
2013-03-24 19:42:00,48.0,37.0,30.21,SE,140,3.0,10.0,64,-99.99,,,0.00,8.370000,,2013-03-25 02:42:00,
2013-03-24 19:52:00,48.0,37.0,30.21,SE,140,3.0,10.0,64,-99.99,,,0.00,8.370000,,2013-03-25 02:52:00,
2013-03-24 20:02:00,48.0,37.0,30.21,SE,140,3.0,10.0,64,-99.99,,,0.00,8.370000,,2013-03-25 03:02:00,
2013-03-24 20:12:00,48.0,37.0,30.21,SE,140,3.0,10.0,64,-99.99,,,0.00,8.370000,,2013-03-25 03:12:00,
2013-03-24 20:42:00,46.0,38.0,30.21,ENE,77,2.0,4.0,73,-99.99,,,0.00,0.000000,,2013-03-25 03:42:00,
2013-03-24 20:53:00,46.0,38.0,30.21,ENE,77,2.0,4.0,73,-99.99,,,0.00,0.000000,,2013-03-25 03:53:00,
2013-03-24 21:02:00,46.0,38.0,30.21,ENE,77,2.0,4.0,73,-99.99,,,0.00,0.000000,,2013-03-25 04:02:00,
2013-03-24 21:12:00,46.0,38.0,30.21,ENE,77,2.0,4.0,73,-99.99,,,0.00,0.000000,,2013-03-25 04:12:00,
2013-03-24 21:42:00,45.0,38.0,30.21,East,87,2.0,4.0,79,-99.99,,,0.00,0.000000,,2013-03-25 04:42:00,
2013-03-24 21:52:00,45.0,38.0,30.21,East,87,2.0,4.0,79,-99.99,,,0.00,0.000000,,2013-03-25 04:52:00,
2013-03-24 22:02:00,45.0,38.0,30.21,East,87,2.0,4.0,79,-99.99,,,0.00,0.000000,,2013-03-25 05:02:00,
2013-03-24 22:12:00,45.0,38.0,30.21,East,87,2.0,4.0,79,-99.99,,,0.00,0.000000,,2013-03-25 05:12:00,
2013-03-24 22:42:00,44.0,36.0,30.21,ENE,59,3.0,6.0,74,-99.99,,,0.00,0.000000,,2013-03-25 05:42:00,
2013-03-24 22:52:00,44.0,36.0,30.21,ENE,59,3.0,6.0,74,-99.99,,,0.00,0.000000,,2013-03-25 05:52:00,
2013-03-24 23:02:00,44.0,36.0,30.21,ENE,59,3.0,6.0,74,-99.99,,,0.00,0.000000,,2013-03-25 06:02:00,
2013-03-24 23:12:00,44.0,36.0,30.21,ENE,59,3.0,6.0,74,-99.99,,,0.00,0.000000,,2013-03-25 06:12:00,
2013-03-24 23:42:00,43.0,36.0,30.20,ENE,72,2.0,4.0,74,-99.99,,,0.00,0.000000,,2013-03-25 06:42:00,
2013-03-24 23:52:00,43.0,36.0,30.20,ENE,72,2.0,4.0,74,-99.99,,,0.00,0.000000,,2013-03-25 06:52:00,